#timestamp,LO_Frequency,Hit,StdDev 
1568847615.7,286046998.6,N
1568847635.5,286046997.4,Y
1568847685.4,286046997.5,E
1568847695.3,286046997.5,N
1568847715.2,286046996.8,P
1568847735.0,286046997.3,P
1568847735.9,286046997.3,Y
1568847755.8,286047001.0,P
1568847775.6,286047000.0,N
1568847795.4,286046998.1,N
1568847815.3,286047001.2,N
1568847835.1,286047011.9,Y
1568847855.8,286047000.6,P
1568847875.7,286047000.3,N
1568847895.5,286047000.7,N
1568847915.4,286047002.8,Y
1568847935.2,286047001.9,P
1568847955.0,286047002.2,N
1568847955.9,286047002.2,N
1568847975.8,286047000.2,N
1568847995.6,286047000.5,N
1568848015.5,286046998.5,N
1568848035.3,286046998.3,N
1568848055.1,286046999.2,N
1568848075.9,286046999.4,N
1568848095.7,286046998.7,N
1568848115.5,286046999.8,N
1568848135.4,286047000.2,N
1568848155.2,286046998.1,N
1568848175.1,286046999.4,N
1568848176.0,286046999.4,N
1568848195.8,286046999.1,N
1568848215.6,286046998.3,N
1568848235.5,286046998.5,N
1568848255.3,286047001.0,N
1568848275.2,286047000.5,N
1568848295.9,286047002.3,N
1568848315.7,286047001.4,N
1568848335.6,286047001.6,N
1568848355.4,286047001.8,N
1568848375.2,286047001.4,N
1568848395.1,286047002.4,N
1568848396.0,286047002.4,N
1568848415.8,286047004.0,N
1568848435.7,286047001.6,N
1568848455.5,286047002.5,N
1568848475.3,286047002.7,N
1568848495.2,286046999.8,N
1568848515.0,286046999.7,N
1568848515.9,286046999.7,N
1568848535.8,286047004.0,N
1568848555.6,286047003.5,N
1568848575.4,286047004.4,N
1568848595.3,286047005.6,Y
1568848615.1,286047001.6,P
1568848635.8,286047001.9,P
1568848655.7,286047002.2,P
1568848675.5,286047002.0,Y
1568848695.4,286047000.4,P
1568848715.2,286047001.1,N
1568848735.0,286046998.8,N
1568848735.9,286046998.8,N
1568848755.8,286046998.7,N
1568848775.6,286047001.2,N
1568848795.5,286047000.5,N
1568848815.3,286047002.6,N
1568848835.1,286047004.0,Y
1568848855.9,286047001.7,P
1568848875.7,286047000.4,N
1568848895.6,286047000.3,N
1568848915.4,286047002.8,Y
1568848935.2,286047000.5,P
1568848955.1,286047000.5,P
1568848956.0,286047000.5,P
1568848975.8,286047001.0,Y
1568848995.7,286046996.9,P
1568849015.5,286046996.9,N
1568849035.3,286046997.0,N
1568849055.2,286046999.1,N
1568849075.0,286046998.8,N
1568849075.9,286046998.8,N
1568849095.8,286046998.9,N
1568849115.6,286047001.2,N
1568849135.4,286046998.3,N
1568849155.3,286046998.8,N
1568849175.1,286047000.9,N
1568849195.8,286046998.2,N
1568849215.7,286046998.3,N
1568849235.5,286047000.6,N
1568849255.4,286047000.5,N
1568849275.2,286046998.3,N
1568849295.0,286046998.5,N
1568849295.9,286046998.5,N
1568849315.8,286046998.1,N
1568849335.6,286047001.2,N
1568849355.5,286046999.9,N
1568849375.3,286047002.2,N
1568849395.1,286047002.3,N
1568849415.9,286046999.7,N
1568849435.7,286047002.4,N
1568849455.5,286047002.8,N
1568849475.4,286047001.0,N
1568849495.2,286047000.3,N
1568849515.1,286046998.2,N
1568849516.0,286046998.2,N
1568849535.8,286046998.5,N
1568849555.6,286047000.4,N
1568849575.5,286047004.4,N
1568849595.3,286046999.7,N
1568849615.2,286046999.9,N
1568849635.9,286046999.7,N
1568849655.7,286047001.6,N
1568849675.6,286046999.7,N
1568849695.4,286047000.1,N
1568849715.2,286047000.6,N
1568849735.1,286047000.7,N
1568849736.0,286047000.7,N
1568849755.8,286047001.1,N
1568849775.7,286046998.2,N
1568849795.5,286046999.9,N
1568849815.3,286047002.5,N
1568849835.2,286047001.0,N
1568849855.0,286046998.2,N
1568849855.9,286046998.2,N
1568849875.8,286047000.8,N
1568849895.6,286047001.0,N
1568849915.4,286047000.4,N
1568849935.3,286047000.5,N
1568849955.1,286046999.7,N
1568849975.8,286047000.2,N
1568849995.7,286047000.4,N
1568850015.5,286046998.5,N
1568850035.4,286047001.2,N
1568850055.2,286047001.2,N
1568850075.0,286047000.5,N
1568850075.9,286047000.5,N
1568850095.8,286047000.1,N
1568850115.6,286047000.4,N
1568850135.5,286047000.1,N
1568850155.3,286047001.8,N
1568850175.1,286047002.2,N
1568850195.9,286047000.3,N
1568850215.7,286047000.3,N
1568850235.6,286047002.7,N
1568850255.4,286047004.3,Y
1568850275.2,286047001.9,P
1568850295.1,286047001.7,N
1568850296.0,286047001.7,N
1568850315.8,286047002.4,Y
1568850335.7,286047000.9,P
1568850385.5,286047002.0,E
1568850395.4,286047000.0,N
1568850415.3,286046998.3,P
1568850435.1,286046999.4,N
1568850455.9,286046997.0,Y
1568850475.7,286046997.0,P
1568850495.5,286046997.3,N
1568850515.4,286046996.8,P
1568850535.2,286046998.9,N
1568850555.1,286046999.1,N
1568850556.0,286046999.1,N
1568850575.8,286046997.8,N
1568850595.6,286046995.3,Y
1568850615.5,286046996.5,P
1568850635.3,286046996.9,P
1568850655.1,286046999.6,N
1568850675.9,286046999.6,N
1568850695.7,286046998.2,N
1568850715.6,286047002.7,N
1568850735.4,286047002.1,N
1568850755.2,286046999.7,N
1568850775.1,286047001.6,N
1568850776.0,286047001.6,N
1568850795.8,286047004.4,N
1568850815.7,286047005.5,N
1568850835.5,286047004.8,N
1568850855.3,286047007.3,N
1568850875.2,286047007.0,N
1568850895.0,286047008.8,N
1568850895.9,286047008.8,N
1568850915.8,286047006.6,N
1568850935.6,286047008.8,N
1568850955.4,286047007.4,N
1568850975.3,286047004.6,N
1568850995.1,286047007.4,N
1568851015.8,286047006.9,N
1568851035.7,286047009.2,N
1568851055.5,286047006.4,N
1568851075.4,286047008.8,N
1568851095.2,286047008.6,N
1568851115.0,286047009.2,N
1568851115.9,286047009.2,N
1568851135.8,286047006.4,N
1568851155.6,286047009.1,N
1568851175.5,286047008.8,N
1568851195.3,286047008.5,N
